TimeCDT,TemperatureF,Dew PointF,Humidity,Sea Level PressureIn,VisibilityMPH,Wind Direction,Wind SpeedMPH,Gust SpeedMPH,PrecipitationIn,Events,Conditions,WindDirDegrees,DateUTC
12:52 AM,87.1,57.9,37,29.86,10.0,SE,15.0,-,N/A,,Clear,130,2013-07-14 05:52:00
1:52 AM,84.9,57.9,40,29.86,10.0,SE,11.5,-,N/A,,Clear,140,2013-07-14 06:52:00
2:52 AM,82.9,59.0,44,29.85,10.0,SSE,10.4,-,N/A,,Clear,150,2013-07-14 07:52:00
3:52 AM,82.9,59.0,44,29.83,10.0,SSE,15.0,-,N/A,,Clear,160,2013-07-14 08:52:00
4:52 AM,81.0,59.0,47,29.83,10.0,SSE,10.4,-,N/A,,Partly Cloudy,160,2013-07-14 09:52:00
5:52 AM,79.0,59.0,50,29.82,10.0,South,8.1,-,N/A,,Clear,180,2013-07-14 10:52:00
6:52 AM,77.0,59.0,54,29.81,10.0,SSW,3.5,-,N/A,,Clear,210,2013-07-14 11:52:00
7:52 AM,78.1,60.1,54,29.81,10.0,South,6.9,-,N/A,,Clear,180,2013-07-14 12:52:00
8:52 AM,84.0,57.0,40,29.85,10.0,East,9.2,-,N/A,,Scattered Clouds,80,2013-07-14 13:52:00
9:52 AM,87.1,59.0,39,29.87,10.0,East,13.8,-,N/A,,Clear,80,2013-07-14 14:52:00
10:52 AM,89.1,57.9,35,29.86,10.0,ESE,9.2,-,N/A,,Clear,110,2013-07-14 15:52:00
11:52 AM,88.0,57.9,36,29.87,10.0,ENE,17.3,-,N/A,,Clear,70,2013-07-14 16:52:00
12:52 PM,89.1,61.0,39,29.86,10.0,East,18.4,28.8,N/A,,Clear,80,2013-07-14 17:52:00
1:52 PM,89.1,62.1,40,29.84,10.0,East,23.0,28.8,N/A,,Clear,90,2013-07-14 18:52:00
2:52 PM,88.0,62.1,42,29.84,10.0,East,23.0,29.9,N/A,,Clear,90,2013-07-14 19:52:00
3:52 PM,89.1,60.1,38,29.82,10.0,East,19.6,27.6,N/A,,Clear,100,2013-07-14 20:52:00
4:52 PM,82.9,61.0,47,29.84,10.0,East,21.9,31.1,N/A,,Clear,90,2013-07-14 21:52:00
5:52 PM,79.0,60.1,52,29.85,10.0,ESE,20.7,27.6,0.00,,Partly Cloudy,110,2013-07-14 22:52:00
6:52 PM,75.9,62.1,62,29.88,10.0,ENE,15.0,21.9,0.00,,Partly Cloudy,60,2013-07-14 23:52:00
7:52 PM,71.1,64.9,81,29.88,9.0,East,17.3,23.0,0.00,Rain,Light Rain,80,2013-07-15 00:52:00
8:52 PM,68.0,66.0,93,29.94,6.0,NNE,10.4,-,0.02,Rain,Light Rain,20,2013-07-15 01:52:00
9:52 PM,66.9,66.9,100,29.93,6.0,East,10.4,-,0.07,Rain,Light Rain,80,2013-07-15 02:52:00
10:03 PM,66.2,66.2,100,29.98,2.5,East,13.8,-,0.08,Rain-Thunderstorm,Thunderstorms and Rain,100,2013-07-15 03:03:00
10:11 PM,66.2,66.2,100,29.99,4.0,East,12.7,-,0.12,Rain-Thunderstorm,Thunderstorms and Rain,90,2013-07-15 03:11:00
10:36 PM,66.2,-9999,N/A,29.99,10.0,East,15.0,20.7,0.12,,Scattered Clouds,90,2013-07-15 03:36:00
10:52 PM,66.0,-9999,N/A,29.92,10.0,East,15.0,-,0.12,Rain,Light Rain,90,2013-07-15 03:52:00
11:48 PM,66.2,66.2,100,30.01,6.0,ENE,10.4,-,0.03,Rain,Light Rain,60,2013-07-15 04:48:00
11:52 PM,66.0,66.0,100,29.93,8.0,East,12.7,-,0.03,Rain,Light Rain,80,2013-07-15 04:52:00
11:59 PM,66.2,66.2,100,30.01,9.0,East,11.5,-,0.01,Rain,Light Rain,80,2013-07-15 04:59:00